アトラス彗星

C/2020 Y3 ( ATLAS )

English version
Home page
Updated on June 14, 2021

---------------------------------------------------------------------

・ プロフィール

発見日 2020年12月28日
発見光度 18.4等
発見者 Asteroid Terrestrial-Impact Last Alert System (ATLAS) search program

・ 写真集

・ 軌道要素

Epoch 2020 Dec. 17.0 TT = JDT 2459200.5
T 2020 Dec. 3.48592 TT                                  Rudenko
q   1.9992430            (2000.0)            P               Q
z  +0.0066090      Peri.  342.04349     -0.93977732     -0.27952932
 +/-0.0000085      Node   191.42668     -0.01784125     -0.53453260
e   0.9867870      Incl.   83.09588     -0.34132137     +0.79758276
From 382 observations 2020 Dec. 28-2021 May 13, mean residual 0".9.

・ 光度変化

        m1 = 12.7 + 5 logΔ + 10.0 log r

---------------------------------------------------------------------

軌道要素はM.P.E.C. 2021-L04に掲載されたものです。
光度グラフはComet for Windowsで作成したものです。

---------------------------------------------------------------------

Copyright(C) Seiichi Yoshida (comet@aerith.net). All rights reserved.